Pampa, TX

3:05 PM CDT on June 25, 2017 (GMT -0500)
Perry Lefors

Weather History for KPPA - September, 2013

Change the Weather History Date:

Thursday, September 19, 2013

  Actual Average Record
Temperature  
Mean Temperature 71 °F -  
Max Temperature 83 °F 79 °F 95 °F (1972)
Min Temperature 60 °F 56 °F 41 °F (1971)
Cooling Degree Days 6    
Growing Degree Days 21 (Base 50)    
Moisture  
Dew Point 62 °F    
Average Humidity 72    
Maximum Humidity 94    
Minimum Humidity 51    
Precipitation  
Precipitation 0.00 in - - ()
Sea Level Pressure  
Sea Level Pressure 29.99 in    
Wind  
Wind Speed 12 mph (South)    
Max Wind Speed 24 mph    
Max Gust Speed 30 mph    
Visibility 10 miles    
Events Rain , Thunderstorm    
Averages and records for this station are not official NWS values.
T = Trace of Precipitation, MM = Missing Value Source: NWS Daily Summary

Daily Weather History Graph

Daily Weather History Graph

Search for Another Location

Airport or City:

Trip Planner

Search our weather history database for the weather conditions in past years. The results will help you decide how hot, cold, wet, or windy it might be!

Date:

Astronomy

Sep. 19, 2013 Rise Set
Actual Time 7:29 AM CDT 7:44 PM CDT
Civil Twilight 7:04 AM CDT 8:10 PM CDT
Nautical Twilight 6:34 AM CDT 8:40 PM CDT
Astronomical Twilight 6:04 AM CDT 9:10 PM CDT
Moon 7:47 PM CDT (9/19) 7:39 AM CDT (9/19)
Length of Visible Light 13h 05m
Length of Day
12h 14m
Full, 100% of the Moon is Illuminated
Sep 19
Full
Sep 26
Last Quarter
Oct 4
New
Oct 11
First Quarter
Oct 18
Full

Hourly Weather History & Observations

Time (CDT) Temp. Heat Index Dew Point Humidity Pressure Visibility Wind Dir Wind Speed Gust Speed Precip Events Conditions
12:15 AM 69.1 °F - 59.9 °F 72% 29.97 in 10.0 mi South 9.2 mph - N/A   Scattered Clouds
12:35 AM 68.9 °F - 59.9 °F 73% 29.97 in 10.0 mi South 10.4 mph - N/A   Scattered Clouds
12:55 AM 69.8 °F - 59.5 °F 70% 29.97 in 10.0 mi South 11.5 mph - N/A   Mostly Cloudy
1:15 AM 69.4 °F - 59.5 °F 71% 29.97 in 10.0 mi South 10.4 mph - N/A   Overcast
1:35 AM 69.4 °F - 59.5 °F 71% 29.97 in 10.0 mi South 11.5 mph - N/A   Mostly Cloudy
1:55 AM 69.3 °F - 59.5 °F 71% 29.97 in 10.0 mi South 12.7 mph - N/A   Mostly Cloudy
2:15 AM 68.9 °F - 59.5 °F 72% 29.97 in 10.0 mi South 11.5 mph - N/A   Scattered Clouds
2:35 AM 68.9 °F - 59.9 °F 73% 29.97 in 10.0 mi South 12.7 mph - N/A   Mostly Cloudy
2:55 AM 68.9 °F - 59.9 °F 73% 29.96 in 10.0 mi South 11.5 mph - N/A   Scattered Clouds
3:15 AM 68.0 °F - 59.9 °F 75% 29.96 in 10.0 mi SSW 10.4 mph 16.1 mph N/A   Clear
3:35 AM 67.1 °F - 59.9 °F 78% 29.96 in 10.0 mi South 9.2 mph - N/A   Clear
3:55 AM 67.1 °F - 59.9 °F 78% 29.96 in 10.0 mi South 8.1 mph - N/A   Scattered Clouds
4:15 AM 66.7 °F - 60.1 °F 79% 29.96 in 10.0 mi SSW 10.4 mph - N/A   Mostly Cloudy
4:35 AM 66.4 °F - 60.1 °F 80% 29.96 in 10.0 mi SSW 8.1 mph - N/A   Scattered Clouds
4:55 AM 65.8 °F - 59.9 °F 81% 29.96 in 10.0 mi South 5.8 mph - N/A   Scattered Clouds
5:15 AM 65.7 °F - 60.1 °F 82% 29.96 in 10.0 mi South 6.9 mph - N/A   Scattered Clouds
5:35 AM 66.4 °F - 60.3 °F 81% 29.96 in 10.0 mi South 9.2 mph - N/A   Mostly Cloudy
5:55 AM 66.7 °F - 60.3 °F 80% 29.96 in 10.0 mi South 11.5 mph - N/A   Scattered Clouds
6:15 AM 65.3 °F - 60.1 °F 83% 29.96 in 10.0 mi South 10.4 mph - N/A   Scattered Clouds
6:35 AM 65.3 °F - 60.1 °F 83% 29.97 in 10.0 mi SSW 8.1 mph - N/A   Scattered Clouds
6:55 AM 64.6 °F - 60.1 °F 85% 29.97 in 10.0 mi SSW 8.1 mph - N/A   Scattered Clouds
7:15 AM 66.0 °F - 60.6 °F 83% 29.98 in 10.0 mi SSW 11.5 mph - N/A   Clear
7:35 AM 66.2 °F - 60.8 °F 83% 29.98 in 10.0 mi SSW 10.4 mph - N/A   Clear
7:55 AM 65.7 °F - 60.8 °F 84% 29.99 in 10.0 mi SSW 8.1 mph - N/A   Clear
8:15 AM 66.2 °F - 61.0 °F 83% 29.99 in 10.0 mi SSW 10.4 mph - N/A   Clear
8:35 AM 67.8 °F - 61.7 °F 81% 30.00 in 10.0 mi SSW 11.5 mph 17.3 mph N/A   Clear
8:55 AM 69.8 °F - 62.1 °F 76% 30.00 in 10.0 mi SW 12.7 mph 19.6 mph N/A   Clear
9:15 AM 71.4 °F - 62.6 °F 74% 30.01 in 10.0 mi SW 12.7 mph 16.1 mph N/A   Clear
9:35 AM 73.2 °F - 62.8 °F 70% 30.02 in 10.0 mi SW 15.0 mph 21.9 mph N/A   Mostly Cloudy
9:55 AM 73.2 °F - 62.6 °F 69% 30.02 in 10.0 mi WSW 17.3 mph 23.0 mph N/A   Scattered Clouds
10:15 AM 73.2 °F - 62.2 °F 68% 30.03 in 10.0 mi WSW 18.4 mph 24.2 mph N/A   Mostly Cloudy
10:35 AM 72.7 °F - 62.4 °F 70% 30.03 in 10.0 mi WSW 13.8 mph - N/A   Overcast
10:55 AM 75.9 °F - 62.8 °F 64% 30.04 in 10.0 mi WSW 16.1 mph 21.9 mph N/A   Overcast
11:15 AM 77.0 °F - 63.0 °F 62% 30.03 in 10.0 mi SW 10.4 mph 16.1 mph N/A   Mostly Cloudy
11:35 AM 76.5 °F - 63.0 °F 63% 30.03 in 10.0 mi SSW 12.7 mph 17.3 mph N/A   Scattered Clouds
11:55 AM 76.5 °F - 63.3 °F 64% 30.02 in 10.0 mi SW 11.5 mph - N/A   Scattered Clouds
12:15 PM 77.7 °F - 63.1 °F 61% 30.03 in 10.0 mi SW 12.7 mph 24.2 mph N/A   Mostly Cloudy
12:35 PM 79.5 °F - 63.5 °F 58% 30.02 in 10.0 mi SW 12.7 mph 16.1 mph N/A   Scattered Clouds
12:55 PM 79.5 °F - 63.1 °F 57% 30.01 in 10.0 mi SW 9.2 mph - N/A   Clear
1:15 PM 80.8 °F 82.1 °F 63.3 °F 55% 30.00 in 10.0 mi SW 9.2 mph 16.1 mph N/A   Clear
1:35 PM 80.6 °F 81.9 °F 63.0 °F 55% 30.00 in 10.0 mi South 10.4 mph - N/A   Scattered Clouds
1:55 PM 81.0 °F 82.2 °F 63.0 °F 54% 29.99 in 10.0 mi South 11.5 mph - N/A   Mostly Cloudy
2:15 PM 82.0 °F 83.3 °F 63.1 °F 53% 29.99 in 10.0 mi SSW 10.4 mph 20.7 mph N/A Thunderstorm Scattered Clouds
2:35 PM 80.2 °F 81.6 °F 63.3 °F 56% 29.97 in 10.0 mi South 12.7 mph 18.4 mph N/A   Mostly Cloudy
2:55 PM 82.4 °F 83.5 °F 63.3 °F 52% 29.96 in 10.0 mi SSW 13.8 mph 18.4 mph N/A   Scattered Clouds
3:15 PM 82.2 °F 83.2 °F 62.6 °F 51% 29.96 in 10.0 mi SSW 16.1 mph 19.6 mph N/A   Scattered Clouds
3:35 PM 82.0 °F 83.1 °F 62.6 °F 52% 29.96 in 10.0 mi South 13.8 mph 20.7 mph N/A   Scattered Clouds
3:55 PM 80.8 °F 82.1 °F 63.1 °F 55% 29.95 in 10.0 mi South 15.0 mph 19.6 mph N/A   Scattered Clouds
4:15 PM 81.5 °F 82.8 °F 63.1 °F 54% 29.94 in 10.0 mi South 18.4 mph 23.0 mph N/A   Scattered Clouds
4:35 PM 80.8 °F 82.4 °F 64.0 °F 57% 29.94 in 10.0 mi South 19.6 mph 25.3 mph N/A   Scattered Clouds
4:55 PM 79.9 °F - 64.0 °F 58% 29.94 in 10.0 mi SSW 18.4 mph 26.5 mph N/A   Scattered Clouds
5:15 PM 79.0 °F - 64.6 °F 61% 29.93 in 10.0 mi South 21.9 mph 28.8 mph N/A   Scattered Clouds
5:35 PM 76.1 °F - 63.9 °F 66% 29.92 in 10.0 mi SSW 24.2 mph 28.8 mph N/A Thunderstorm Clear
5:55 PM 76.3 °F - 63.7 °F 65% 29.94 in 10.0 mi South 17.3 mph 23.0 mph N/A   Clear
6:15 PM 74.5 °F - 63.9 °F 69% 29.93 in 10.0 mi South 19.6 mph 25.3 mph N/A   Clear
6:35 PM 73.8 °F - 63.7 °F 71% 29.92 in 10.0 mi South 19.6 mph 26.5 mph N/A   Clear
6:55 PM 73.2 °F - 64.8 °F 75% 29.94 in 10.0 mi SSW 16.1 mph - N/A   Clear
7:15 PM 72.5 °F - 64.8 °F 77% 29.93 in 10.0 mi SSW 19.6 mph 26.5 mph N/A   Clear
7:35 PM 71.8 °F - 64.4 °F 77% 29.91 in 10.0 mi South 19.6 mph 29.9 mph N/A   Clear
7:55 PM 71.4 °F - 64.4 °F 78% 29.96 in 10.0 mi South 13.8 mph 21.9 mph N/A   Clear
8:15 PM 71.1 °F - 64.2 °F 79% 29.98 in 10.0 mi SSE 9.2 mph 18.4 mph N/A   Scattered Clouds
8:35 PM 71.1 °F - 63.9 °F 78% 30.00 in 10.0 mi SSE 12.7 mph 18.4 mph N/A   Mostly Cloudy
8:55 PM 70.7 °F - 64.0 °F 79% 30.00 in 10.0 mi SSE 11.5 mph - N/A   Scattered Clouds
9:15 PM 70.2 °F - 64.0 °F 81% 30.02 in 10.0 mi SE 11.5 mph - N/A   Scattered Clouds
9:35 PM 65.3 °F - 58.1 °F 77% 30.05 in 10.0 mi East 15.0 mph 23.0 mph N/A   Overcast
9:55 PM 63.5 °F - 59.0 °F 85% 30.06 in 10.0 mi NE 15.0 mph 28.8 mph N/A   Overcast
10:15 PM 61.7 °F - 58.1 °F 88% 30.08 in 7.0 mi East 17.3 mph 26.5 mph N/A Rain Light Rain
10:35 PM 60.3 °F - 58.1 °F 93% 30.08 in 3.0 mi East 11.5 mph 16.1 mph N/A Rain Heavy Rain
10:55 PM 60.4 °F - 58.6 °F 94% 30.07 in 3.0 mi ESE 15.0 mph - N/A Rain Rain
11:15 PM 60.3 °F - 58.5 °F 94% 30.08 in 10.0 mi ESE 15.0 mph - N/A Rain Light Rain
11:35 PM 60.4 °F - 58.6 °F 94% 30.07 in 10.0 mi SE 15.0 mph - N/A   Mostly Cloudy
11:55 PM 60.4 °F - 58.6 °F 94% 30.07 in 10.0 mi ESE 12.7 mph - N/A   Scattered Clouds